BAW82P EGLL-KSAN

Flight info

Callsign BAW82P
Flight time N/A
Altitude 32000
Route ULTIB T420 TNT UL28 RODOL UM65 TENSO L603 BELOX DCT REMSI DCT GOMUP/M086F320 DCT 5830N02000W 5930N03000W 60N040W 59N050W DCT TOXIT DCT SINGA/N0501F320 DCT LOPVI/N0497F340 DCT 59N070W 5730N08000W 54N090W DCT OTLUR DCT KP21A DCT KP06Y DCT KD84W DCT KD75U DCT KD63S DCT KD48Q DCT PGS DCT PKE LUCKI1
Aircraft B77W/H-SDE1E2E3FGHIJ2J3J4J5M1RWXY/LB1D1

Departure

Time 2026-05-04 04:52
Airport London Heathrow Airport (EGLL)

Arrival

Time N/A
Airport San Diego International Airport (KSAN)
Time Latitude Longitude Altitude Speed Heading
2026-05-04 04:09 51.47213 -0.48019 98 ft 0 kts 270°
2026-05-04 04:39 51.47213 -0.48008 98 ft 2 kts 270°
2026-05-04 04:39 51.47213 -0.47985 98 ft 2 kts 270°
2026-05-04 04:40 51.47213 -0.47961 98 ft 2 kts 270°
2026-05-04 04:40 51.47213 -0.47937 98 ft 2 kts 270°
2026-05-04 04:40 51.47212 -0.47913 98 ft 2 kts 289°
2026-05-04 04:40 51.47205 -0.47891 98 ft 2 kts 310°
2026-05-04 04:41 51.47194 -0.47875 98 ft 2 kts 329°
2026-05-04 04:41 51.47181 -0.47866 98 ft 2 kts 349°
2026-05-04 04:41 51.47171 -0.47864 98 ft 0 kts
2026-05-04 04:41 51.47168 -0.47864 98 ft 0 kts
2026-05-04 04:43 51.47169 -0.47864 98 ft 0 kts
2026-05-04 04:44 51.47177 -0.47864 98 ft 2 kts
2026-05-04 04:44 51.47200 -0.47864 98 ft 4 kts 359°
2026-05-04 04:44 51.47247 -0.47866 98 ft 8 kts 359°
2026-05-04 04:44 51.47319 -0.47868 98 ft 11 kts 359°
2026-05-04 04:45 51.47413 -0.47871 98 ft 14 kts 359°
2026-05-04 04:45 51.47523 -0.47870 98 ft 15 kts 13°
2026-05-04 04:45 51.47578 -0.47717 98 ft 19 kts 88°
2026-05-04 04:47 51.47591 -0.46453 98 ft 26 kts 90°
2026-05-04 04:47 51.47593 -0.46169 98 ft 23 kts 90°
2026-05-04 04:47 51.47595 -0.45917 98 ft 21 kts 89°
2026-05-04 04:47 51.47594 -0.45682 98 ft 21 kts 91°
2026-05-04 04:48 51.47595 -0.45424 98 ft 25 kts 90°
2026-05-04 04:49 51.47591 -0.44193 98 ft 23 kts 91°
2026-05-04 04:49 51.47590 -0.43948 98 ft 20 kts 89°
2026-05-04 04:49 51.47591 -0.43718 98 ft 20 kts 90°
2026-05-04 04:49 51.47613 -0.43547 98 ft 12 kts 58°
2026-05-04 04:50 51.47669 -0.43429 98 ft 15 kts 49°
2026-05-04 04:50 51.47757 -0.43435 98 ft 13 kts 303°
2026-05-04 04:50 51.47767 -0.43524 98 ft 0 kts 269°
2026-05-04 04:51 51.47767 -0.43530 98 ft 2 kts 269°
2026-05-04 04:51 51.47765 -0.43684 98 ft 34 kts 270°
2026-05-04 04:51 51.47763 -0.44463 98 ft 94 kts 271°
2026-05-04 04:51 51.47760 -0.45797 98 ft 148 kts 269°
2026-05-04 04:52 51.47744 -0.47731 123 ft 198 kts 270°
2026-05-04 04:52 51.47713 -0.50001 734 ft 204 kts 270°
2026-05-04 04:52 51.47669 -0.52322 1428 ft 213 kts 271°
2026-05-04 04:52 51.47814 -0.54755 1761 ft 228 kts 290°
2026-05-04 04:53 51.48503 -0.57158 2192 ft 239 kts 300°
2026-05-04 04:53 51.49270 -0.59495 2843 ft 242 kts 299°
2026-05-04 04:53 51.50078 -0.61995 3307 ft 257 kts 298°
2026-05-04 04:53 51.50919 -0.64628 4015 ft 262 kts 297°
2026-05-04 04:54 51.51849 -0.67091 4805 ft 262 kts 313°
2026-05-04 04:54 51.53315 -0.68823 5455 ft 267 kts 338°
2026-05-04 04:54 51.55149 -0.69371 5898 ft 272 kts
2026-05-04 04:54 51.57032 -0.68871 6008 ft 274 kts
2026-05-04 04:55 51.58995 -0.68658 6336 ft 284 kts 359°
2026-05-04 04:55 51.60926 -0.68756 7290 ft 278 kts 356°
2026-05-04 04:55 51.62866 -0.68945 7973 ft 281 kts 355°
2026-05-04 04:55 51.64837 -0.69161 8599 ft 286 kts 355°
2026-05-04 04:56 51.66813 -0.69381 9228 ft 289 kts 354°
2026-05-04 04:56 51.68853 -0.69608 9904 ft 292 kts 354°
2026-05-04 04:56 51.70918 -0.69840 10339 ft 304 kts 354°
2026-05-04 04:56 51.73085 -0.70084 10658 ft 319 kts 354°
2026-05-04 04:57 51.75375 -0.70341 10975 ft 335 kts 354°
2026-05-04 04:57 51.77799 -0.70613 11313 ft 350 kts 354°
2026-05-04 04:57 51.80319 -0.70896 11669 ft 365 kts 354°
2026-05-04 04:57 51.82918 -0.71188 11955 ft 381 kts 354°
2026-05-04 04:58 51.85594 -0.71489 12373 ft 393 kts 354°
2026-05-04 04:58 51.88372 -0.71802 13007 ft 399 kts 354°
2026-05-04 04:58 51.91182 -0.72118 13710 ft 402 kts 354°
2026-05-04 04:58 51.93994 -0.72435 14372 ft 407 kts 354°
2026-05-04 04:59 51.96827 -0.72755 15045 ft 410 kts 354°
2026-05-04 04:59 51.99680 -0.73078 15678 ft 414 kts 354°
2026-05-04 04:59 52.02539 -0.73746 16299 ft 417 kts 345°
2026-05-04 04:59 52.05335 -0.75075 16934 ft 419 kts 340°
2026-05-04 05:00 52.08102 -0.76517 17548 ft 423 kts 340°
2026-05-04 05:00 52.10915 -0.77990 18142 ft 427 kts 340°
2026-05-04 05:00 52.16615 -0.80975 19320 ft 434 kts 340°
2026-05-04 05:01 52.19506 -0.82490 19898 ft 437 kts 340°
2026-05-04 05:01 52.22469 -0.84046 20501 ft 440 kts 340°
2026-05-04 05:01 52.25307 -0.85936 21046 ft 441 kts 330°
2026-05-04 05:01 52.27984 -0.88447 21591 ft 443 kts 327°
2026-05-04 05:02 52.30597 -0.91043 22130 ft 446 kts 327°
2026-05-04 05:02 52.33263 -0.93703 22665 ft 449 kts 327°
2026-05-04 05:02 52.35940 -0.96375 23160 ft 452 kts 327°
2026-05-04 05:02 52.38640 -0.99074 23640 ft 455 kts 327°
2026-05-04 05:03 52.41386 -1.01822 24123 ft 458 kts 327°
2026-05-04 05:03 52.44075 -1.04516 24565 ft 461 kts 327°
2026-05-04 05:04 52.52328 -1.12806 25955 ft 467 kts 327°
2026-05-04 05:04 52.55091 -1.15589 26426 ft 468 kts 328°
2026-05-04 05:04 52.57852 -1.18373 26878 ft 470 kts 328°
2026-05-04 05:06 52.77671 -1.38481 29805 ft 483 kts 329°
2026-05-04 05:06 52.80516 -1.41387 30396 ft 481 kts 329°
2026-05-04 05:06 52.83345 -1.44282 30975 ft 478 kts 329°
2026-05-04 05:07 52.86155 -1.47161 31423 ft 476 kts 329°
2026-05-04 05:07 52.88974 -1.50055 31771 ft 477 kts 329°
2026-05-04 05:07 52.91838 -1.52998 31969 ft 480 kts 329°
2026-05-04 05:09 53.17274 -1.79361 31992 ft 475 kts 329°
2026-05-04 05:10 53.22869 -1.85213 31982 ft 475 kts 329°
2026-05-04 05:10 53.28549 -1.90795 31982 ft 473 kts 333°
2026-05-04 05:11 53.34292 -1.96184 31983 ft 471 kts 333°
2026-05-04 05:11 53.39996 -2.01578 31986 ft 472 kts 333°
2026-05-04 05:12 53.45710 -2.07012 31991 ft 471 kts 333°
2026-05-04 05:12 53.51454 -2.12500 31996 ft 470 kts 333°
2026-05-04 05:13 53.56946 -2.18544 31998 ft 474 kts 322°
2026-05-04 05:13 53.61196 -2.27120 32001 ft 483 kts 304°
2026-05-04 05:14 53.63934 -2.37515 32010 ft 490 kts 295°
2026-05-04 05:14 53.66365 -2.48193 32008 ft 489 kts 295°
2026-05-04 05:15 53.68814 -2.58990 32010 ft 490 kts 296°
2026-05-04 05:15 53.71227 -2.69666 32010 ft 490 kts 295°
2026-05-04 05:16 53.73662 -2.80492 32008 ft 490 kts 295°
2026-05-04 05:16 53.76040 -2.91113 32010 ft 492 kts 295°
2026-05-04 05:17 53.78449 -3.01929 32012 ft 491 kts 296°
2026-05-04 05:17 53.80812 -3.12586 32009 ft 492 kts 296°
2026-05-04 05:18 53.83206 -3.23442 32011 ft 492 kts 296°
2026-05-04 05:18 53.85577 -3.34253 32010 ft 490 kts 296°
2026-05-04 05:19 53.87949 -3.45120 32010 ft 492 kts 296°
2026-05-04 05:19 53.90316 -3.56028 32009 ft 489 kts 296°
2026-05-04 05:20 53.92672 -3.66931 32010 ft 493 kts 295°
2026-05-04 05:20 53.95084 -3.77778 32000 ft 489 kts 301°
2026-05-04 05:21 53.98715 -3.87335 32008 ft 479 kts 317°
2026-05-04 05:21 54.03266 -3.95611 32005 ft 471 kts 319°
2026-05-04 05:22 54.07817 -4.03798 32007 ft 472 kts 319°
2026-05-04 05:22 54.12323 -4.11941 32021 ft 473 kts 319°
2026-05-04 05:23 54.16925 -4.20289 32022 ft 484 kts 319°
2026-05-04 05:23 54.21578 -4.28770 32021 ft 482 kts 319°
2026-05-04 05:24 54.26139 -4.37114 32017 ft 481 kts 319°
2026-05-04 05:24 54.30827 -4.45719 32013 ft 481 kts 319°
2026-05-04 05:25 54.35424 -4.54189 32014 ft 481 kts 319°
2026-05-04 05:25 54.39961 -4.62575 32022 ft 480 kts 319°
2026-05-04 05:26 54.44511 -4.71016 32026 ft 480 kts 317°
2026-05-04 05:26 54.49016 -4.79403 32029 ft 481 kts 317°
2026-05-04 05:28 54.67017 -5.13213 32032 ft 477 kts 317°
2026-05-04 05:29 54.71479 -5.21667 32034 ft 480 kts 317°
2026-05-04 05:29 54.75951 -5.30170 32036 ft 477 kts 317°
2026-05-04 05:31 54.93677 -5.64174 32038 ft 477 kts 317°
2026-05-04 05:32 54.98106 -5.72746 32041 ft 476 kts 316°
2026-05-04 05:33 55.04742 -5.85648 32042 ft 474 kts 316°
2026-05-04 05:33 55.09102 -5.94161 32045 ft 476 kts 315°
2026-05-04 05:34 55.13512 -6.02804 32059 ft 475 kts 315°
2026-05-04 05:34 55.17876 -6.11386 32059 ft 475 kts 315°
2026-05-04 05:35 55.22272 -6.20062 32058 ft 475 kts 315°
2026-05-04 05:35 55.26628 -6.28693 32060 ft 474 kts 315°
2026-05-04 05:36 55.30927 -6.37239 32058 ft 474 kts 315°
2026-05-04 05:36 55.35300 -6.45963 32057 ft 475 kts 315°
2026-05-04 05:37 55.39606 -6.54585 32058 ft 474 kts 315°
2026-05-04 05:37 55.43932 -6.63279 32061 ft 472 kts 315°
2026-05-04 05:38 55.50411 -6.76358 32061 ft 472 kts 314°
2026-05-04 05:38 55.54707 -6.85071 32062 ft 473 kts 314°
2026-05-04 05:39 55.61147 -6.98190 32060 ft 472 kts 314°
2026-05-04 05:40 55.67555 -7.11315 32058 ft 472 kts 314°
2026-05-04 05:40 55.71827 -7.20104 32060 ft 471 kts 314°
2026-05-04 05:41 55.76099 -7.28928 32061 ft 472 kts 314°
2026-05-04 05:41 55.80345 -7.37728 32066 ft 471 kts 314°
2026-05-04 05:42 55.84595 -7.46569 32065 ft 472 kts 314°
2026-05-04 05:42 55.88829 -7.55411 32063 ft 471 kts 313°
2026-05-04 05:43 55.93064 -7.64286 32063 ft 471 kts 313°
2026-05-04 05:45 56.09901 -7.99900 32062 ft 469 kts 312°
2026-05-04 05:47 56.26686 -8.35936 32068 ft 470 kts 312°
2026-05-04 05:47 56.30816 -8.44887 32062 ft 469 kts 312°
2026-05-04 05:48 56.34967 -8.53918 32057 ft 469 kts 312°
2026-05-04 05:48 56.39120 -8.62985 32057 ft 469 kts 311°
2026-05-04 05:49 56.43253 -8.72042 32058 ft 469 kts 311°
2026-05-04 05:49 56.47402 -8.81170 32058 ft 470 kts 311°
2026-05-04 05:51 56.63910 -9.17836 32049 ft 469 kts 310°
2026-05-04 05:52 56.67999 -9.27006 32048 ft 469 kts 310°
2026-05-04 05:52 56.72100 -9.36237 32045 ft 468 kts 310°
2026-05-04 05:54 56.88316 -9.73091 32035 ft 467 kts 309°
2026-05-04 05:55 56.92372 -9.82399 32033 ft 467 kts 309°
2026-05-04 05:55 56.96402 -9.91681 32035 ft 467 kts 309°
2026-05-04 05:56 56.99948 -10.01630 32026 ft 468 kts 295°
2026-05-04 05:56 57.02340 -10.12735 32031 ft 469 kts 292°
2026-05-04 05:57 57.04613 -10.23983 32022 ft 469 kts 291°
2026-05-04 05:57 57.06844 -10.35268 32029 ft 469 kts 291°
2026-05-04 05:58 57.09029 -10.46480 32023 ft 469 kts 291°
2026-05-04 05:58 57.11222 -10.57851 32031 ft 470 kts 291°
2026-05-04 05:59 57.13389 -10.69179 32029 ft 469 kts 290°
2026-05-04 05:59 57.15533 -10.80468 32031 ft 469 kts 290°
2026-05-04 06:00 57.17660 -10.91746 32031 ft 469 kts 290°
2026-05-04 06:00 57.19794 -11.03129 32029 ft 467 kts 290°
2026-05-04 06:01 57.21935 -11.14617 32024 ft 469 kts 290°
2026-05-04 06:03 57.30273 -11.60059 32037 ft 466 kts 289°
2026-05-04 06:05 57.39436 -12.11306 32045 ft 465 kts 288°
2026-05-04 06:06 57.41442 -12.22719 32044 ft 463 kts 288°
2026-05-04 06:06 57.43431 -12.34108 32039 ft 465 kts 288°
2026-05-04 06:07 57.45396 -12.45431 32040 ft 464 kts 288°
2026-05-04 06:07 57.47365 -12.56844 32029 ft 465 kts 288°
2026-05-04 06:08 57.49332 -12.68317 32035 ft 464 kts 287°
2026-05-04 06:08 57.51259 -12.79634 32034 ft 463 kts 287°
2026-05-04 06:09 57.53213 -12.91182 32041 ft 464 kts 287°
2026-05-04 06:11 57.60833 -13.36934 32039 ft 462 kts 287°
2026-05-04 06:13 57.68292 -13.82913 32043 ft 461 kts 285°
2026-05-04 06:14 57.74635 -14.23000 32046 ft 461 kts 285°
2026-05-04 06:15 57.76428 -14.34505 32041 ft 461 kts 285°
2026-05-04 06:15 57.78201 -14.45960 32043 ft 461 kts 285°
2026-05-04 06:16 57.79986 -14.57569 32050 ft 462 kts 285°
2026-05-04 06:16 57.81747 -14.69105 32054 ft 461 kts 284°
2026-05-04 06:17 57.83487 -14.80582 32053 ft 460 kts 284°
2026-05-04 06:17 57.85218 -14.92077 32054 ft 459 kts 284°
2026-05-04 06:18 57.86944 -15.03622 32056 ft 460 kts 284°
2026-05-04 06:20 57.93832 -15.50527 32052 ft 466 kts 284°
2026-05-04 06:21 57.98064 -15.80035 32056 ft 465 kts 283°
2026-05-04 06:22 57.99737 -15.91859 32056 ft 466 kts 283°
2026-05-04 06:25 58.11088 -16.74506 32067 ft 467 kts 283°
2026-05-04 06:26 58.12662 -16.86321 32069 ft 467 kts 282°
2026-05-04 06:26 58.14235 -16.98234 32068 ft 468 kts 282°
2026-05-04 06:27 58.18113 -17.28000 32073 ft 467 kts 283°
2026-05-04 06:28 58.19653 -17.39990 32073 ft 466 kts 283°
2026-05-04 06:28 58.21169 -17.51888 32073 ft 467 kts 283°
2026-05-04 06:29 58.22682 -17.63861 32080 ft 468 kts 283°
2026-05-04 06:29 58.24184 -17.75843 32086 ft 468 kts 282°
2026-05-04 06:30 58.25681 -17.87892 32087 ft 468 kts 283°
2026-05-04 06:30 58.27155 -17.99856 32091 ft 469 kts 283°
2026-05-04 06:31 58.28627 -18.11899 32089 ft 468 kts 283°
2026-05-04 06:31 58.30092 -18.23992 32089 ft 468 kts 283°
2026-05-04 06:33 58.35821 -18.72316 32092 ft 468 kts 282°
2026-05-04 06:34 58.37225 -18.84417 32089 ft 468 kts 282°
2026-05-04 06:34 58.38615 -18.96513 32089 ft 468 kts 282°
2026-05-04 06:36 58.44060 -19.44985 32098 ft 468 kts 282°
2026-05-04 06:37 58.45390 -19.57098 32099 ft 469 kts 282°
2026-05-04 06:37 58.46712 -19.69254 32104 ft 469 kts 281°
2026-05-04 06:38 58.48029 -19.81485 32104 ft 469 kts 281°
2026-05-04 06:40 58.54115 -20.29403 32109 ft 469 kts 285°
2026-05-04 06:40 58.55764 -20.41123 32108 ft 470 kts 285°
2026-05-04 06:41 58.57440 -20.53188 32107 ft 469 kts 285°
2026-05-04 06:41 58.59098 -20.65243 32105 ft 469 kts 284°
2026-05-04 06:42 58.60739 -20.77278 32117 ft 470 kts 284°
2026-05-04 06:44 58.67136 -21.25185 32118 ft 469 kts 284°
2026-05-04 06:44 58.68705 -21.37167 32119 ft 467 kts 284°
2026-05-04 06:45 58.70285 -21.49345 32118 ft 469 kts 284°
2026-05-04 06:45 58.71862 -21.61587 32120 ft 468 kts 284°
2026-05-04 06:46 58.73411 -21.73725 32129 ft 469 kts 283°
2026-05-04 06:46 58.74969 -21.86026 32127 ft 468 kts 283°
2026-05-04 06:48 58.81005 -22.34708 32126 ft 467 kts 283°
2026-05-04 06:50 58.86813 -22.83184 32150 ft 468 kts 282°
2026-05-04 06:51 58.88241 -22.95360 32155 ft 468 kts 282°
2026-05-04 06:51 58.89665 -23.07622 32160 ft 469 kts 282°
2026-05-04 06:52 58.91078 -23.19888 32155 ft 468 kts 282°
2026-05-04 06:52 58.92519 -23.32516 32156 ft 469 kts 282°
2026-05-04 06:53 58.93919 -23.44911 32144 ft 469 kts 282°
2026-05-04 06:53 58.95298 -23.57217 32147 ft 470 kts 282°
2026-05-04 06:54 58.96667 -23.69561 32155 ft 470 kts 282°
2026-05-04 06:54 58.98028 -23.81943 32160 ft 470 kts 282°
2026-05-04 06:55 58.99367 -23.94239 32160 ft 470 kts 282°
2026-05-04 06:55 59.00713 -24.06719 32156 ft 470 kts 282°
2026-05-04 06:57 59.05977 -24.56757 32155 ft 473 kts 282°
2026-05-04 06:58 59.07258 -24.69234 32155 ft 472 kts 281°
2026-05-04 06:58 59.08530 -24.81761 32159 ft 473 kts 281°
2026-05-04 06:59 59.09783 -24.94221 32156 ft 472 kts 281°
2026-05-04 06:59 59.11034 -25.06788 32162 ft 474 kts 281°
2026-05-04 07:01 59.15925 -25.57263 32153 ft 475 kts 281°
2026-05-04 07:02 59.17123 -25.69966 32156 ft 476 kts 280°
2026-05-04 07:02 59.18304 -25.82629 32156 ft 476 kts 280°
2026-05-04 07:03 59.19481 -25.95382 32158 ft 477 kts 280°
2026-05-04 07:03 59.20637 -26.08067 32161 ft 477 kts 280°
2026-05-04 07:04 59.21793 -26.20884 32159 ft 478 kts 280°
2026-05-04 07:04 59.22933 -26.33686 32159 ft 477 kts 280°
2026-05-04 07:05 59.24048 -26.46346 32158 ft 476 kts 281°
2026-05-04 07:05 59.25192 -26.59489 32158 ft 476 kts 280°
2026-05-04 07:06 59.26864 -26.78993 32163 ft 477 kts 279°
2026-05-04 07:07 59.27975 -26.92163 32160 ft 478 kts 279°
2026-05-04 07:09 59.32216 -27.44039 32168 ft 478 kts 279°
2026-05-04 07:09 59.33234 -27.56906 32169 ft 479 kts 279°
2026-05-04 07:10 59.34237 -27.69734 32176 ft 478 kts 278°
2026-05-04 07:12 59.38182 -28.21980 32181 ft 479 kts 279°
2026-05-04 07:12 59.39159 -28.35381 32179 ft 479 kts 279°
2026-05-04 07:13 59.40125 -28.48819 32179 ft 480 kts 279°
2026-05-04 07:13 59.41046 -28.61834 32181 ft 481 kts 279°
2026-05-04 07:14 59.43307 -28.94621 32183 ft 482 kts 278°
2026-05-04 07:15 59.44204 -29.07985 32180 ft 481 kts 278°
2026-05-04 07:15 59.45080 -29.21242 32187 ft 481 kts 278°
2026-05-04 07:16 59.45923 -29.34188 32186 ft 481 kts 278°
2026-05-04 07:16 59.46757 -29.47219 32189 ft 482 kts 278°
2026-05-04 07:17 59.47578 -29.60247 32188 ft 482 kts 278°
2026-05-04 07:17 59.48385 -29.73266 32197 ft 483 kts 277°
2026-05-04 07:18 59.49185 -29.86399 32196 ft 483 kts 277°
2026-05-04 07:18 59.49980 -29.99437 32194 ft 483 kts 279°
2026-05-04 07:19 59.51097 -30.12413 32199 ft 482 kts 280°
2026-05-04 07:19 59.52243 -30.25444 32199 ft 482 kts 280°
2026-05-04 07:20 59.53365 -30.38374 32199 ft 483 kts 280°
2026-05-04 07:20 59.54481 -30.51403 32198 ft 482 kts 280°